星链-31838 (STARLINK-31838 )

导读 | 星芒AI

STARLINK-31838 是 SpaceX 星链(Starlink)卫星互联网项目中的一颗低轨通信卫星。该卫星属于星链计划的第三批部署,旨在为全球用户提供高速、低延迟的互联网服务。它运行在约 550 公里的近地轨道,采用先进的推进和通信技术,支持宽带数据传输。星链项目通过大规模部署此类卫星,构建覆盖全球的卫星网络,尤其服务于偏远和网络基础设施薄弱的地区。STARLINK-31838 的发射和运行有助于提升星链网络的覆盖密度与服务质量。

基本信息
目录编号:
60130
目录名称:
STARLINK-31838
国际标识:
2024-118T
轨道中心:
EARTH
卫星名称:
星链-31838
卫星全名:
星链-31838 (STARLINK-31838 )
卫星状态:
在轨 (已飞行544 天)
发射日期:
2024-06-24 UTC
国别 :
美国 (US)
星等 :
--
轨道信息
数据来源 国际轨道数据
星历时间: 2025-12-19T17:50:08+0800
16小时前
查看轨道信息
半长轴: 6853.349km
偏心率: 0.0001139
轨道倾角: 53.161°
近地点辐角 80.847°
升交点赤经 39.718°
平近点角 279.266°
近地点: 474.431km
远地点: 475.993km
周期: 94.105分钟
每日圈数: 15.302013
详细信息
固有亮度:
5
最大亮度:
1.5
卫星平台:
Starlink v2.0 mini
覆盖范围:
全球
运营商:
太空探索技术公司
运营商所在国:
美国
制造商(研发单位):
太空探索技术公司
制造商所在国:
美国
使用方式:
暂无
卫星简介
星链(Starlink)计划是由太空探索技术公司(SpaceX)提出的一个巨型低轨卫星互联网星座项目,计划在2019年至2024年间在太空搭建由约1.2万颗卫星组成的“星链”网络,其中1584颗将部署在地球上空550千米处的近地轨道,并从2020年开始工作。该卫星仍在工作。
2D轨道图
3D轨道图
轨道高度分析图
轨道倾角分析图
轨道综合分析图
查看轨道综合分析图